Weather History for KPMP - November, 2013

Change the Weather History Date:

Friday, November 1, 2013

  Actual Average Record
Temperature  
Mean Temperature 82 °F -  
Max Temperature 87 °F 85 °F 95 °F (1983)
Min Temperature 78 °F 68 °F 48 °F (1993)
Cooling Degree Days 18    
Growing Degree Days 32 (Base 50)    
Moisture  
Dew Point 71 °F    
Average Humidity 70    
Maximum Humidity 76    
Minimum Humidity 63    
Precipitation  
Precipitation 0.00 in - - ()
Sea Level Pressure  
Sea Level Pressure 29.97 in    
Wind  
Wind Speed 12 mph (SSE)    
Max Wind Speed 17 mph    
Max Gust Speed 22 mph    
Visibility 10 miles    
Events      
Averages and records for this station are not official NWS values.
T = Trace of Precipitation, MM = Missing Value Source: NWS Daily Summary

Daily Weather History Graph

Daily Weather History Graph

Search for Another Location

Airport or City:

Trip Planner

Search our weather history database for the weather conditions in past years. The results will help you decide how hot, cold, wet, or windy it might be!

Date:

Astronomy

Nov. 01, 2013 Rise Set
Actual Time 7:29 AM EDT 6:38 PM EDT
Civil Twilight 7:05 AM EDT 7:01 PM EDT
Nautical Twilight 6:38 AM EDT 7:29 PM EDT
Astronomical Twilight 6:11 AM EDT 7:56 PM EDT
Moon 5:30 AM EDT (11/1) 5:22 PM EDT (11/1)
Length of Visible Light 11h 56m
Length of Day
11h 08m
Waning Crescent, 4% of the Moon is Illuminated
Nov 1
Waning Crescent
Nov 3
New
Nov 10
First Quarter
Nov 17
Full
Nov 25
Last Quarter

Hourly Weather History & Observations

Time (EDT) Temp. Heat Index Dew Point Humidity Pressure Visibility Wind Dir Wind Speed Gust Speed Precip Events Conditions
12:53 AM 80.1 °F 83.6 °F 71.1 °F 74% 30.01 in 10.0 mi SE 17.3 mph - N/A   Unknown
1:53 AM 80.1 °F 83.6 °F 71.1 °F 74% 30.00 in 10.0 mi SE 12.7 mph 21.9 mph N/A   Unknown
2:53 AM 80.1 °F 83.6 °F 71.1 °F 74% 29.99 in 10.0 mi SE 12.7 mph 19.6 mph N/A   Unknown
3:53 AM 80.1 °F 83.6 °F 71.1 °F 74% 29.97 in 10.0 mi SE 12.7 mph - N/A   Unknown
4:53 AM 80.1 °F 83.2 °F 70.0 °F 71% 29.97 in 10.0 mi SE 12.7 mph - N/A   Unknown
5:53 AM 79.0 °F - 70.0 °F 74% 29.98 in 10.0 mi SE 9.2 mph - N/A   Unknown
6:53 AM 79.0 °F - 70.0 °F 74% 29.99 in 10.0 mi SE 9.2 mph - N/A   Unknown
7:53 AM 79.0 °F - 70.0 °F 74% 30.01 in 10.0 mi SE 6.9 mph - N/A   Unknown
8:53 AM 82.0 °F 86.3 °F 71.1 °F 69% 30.02 in 10.0 mi SSE 6.9 mph - N/A   Scattered Clouds
9:53 AM 84.0 °F 89.6 °F 72.0 °F 67% 30.02 in 10.0 mi SE 8.1 mph - N/A   Scattered Clouds
10:53 AM 84.0 °F 89.6 °F 72.0 °F 67% 30.01 in 10.0 mi SSE 9.2 mph - N/A   Scattered Clouds
11:53 AM 82.9 °F 87.5 °F 71.1 °F 67% 30.00 in 10.0 mi SE 9.2 mph - N/A   Mostly Cloudy
12:53 PM 84.0 °F 89.6 °F 72.0 °F 67% 29.98 in 10.0 mi ESE 10.4 mph - 0.00 in   Scattered Clouds
1:53 PM 86.0 °F 92.2 °F 72.0 °F 63% 29.95 in 10.0 mi SSE 13.8 mph - N/A   Scattered Clouds
2:53 PM 86.0 °F 92.2 °F 72.0 °F 63% 29.93 in 10.0 mi SSE 10.4 mph - N/A   Unknown
3:53 PM 84.9 °F 90.7 °F 72.0 °F 65% 29.92 in 10.0 mi SE 12.7 mph - N/A   Unknown
4:53 PM 84.0 °F 89.6 °F 72.0 °F 67% 29.91 in 10.0 mi SSE 13.8 mph - N/A   Unknown
5:53 PM 82.9 °F 88.0 °F 72.0 °F 69% 29.91 in 10.0 mi South 10.4 mph - N/A   Partly Cloudy
6:53 PM 81.0 °F 84.9 °F 71.1 °F 72% 29.93 in 10.0 mi SSE 9.2 mph - N/A   Unknown
7:53 PM 81.0 °F 84.4 °F 70.0 °F 69% 29.94 in 10.0 mi SSE 8.1 mph - N/A   Unknown
8:53 PM 81.0 °F 84.9 °F 71.1 °F 72% 29.95 in 10.0 mi SSE 5.8 mph - N/A   Unknown
9:53 PM 80.1 °F 83.6 °F 71.1 °F 74% 29.96 in 10.0 mi South 8.1 mph - N/A   Unknown
10:53 PM 80.1 °F 83.2 °F 70.0 °F 71% 29.96 in 10.0 mi South 5.8 mph - N/A   Unknown
11:53 PM 78.1 °F - 70.0 °F 76% 29.96 in 10.0 mi SW 3.5 mph - N/A   Unknown